Location: ??
(34.7252°N, 135.5457°E)
Time: 07:48:07
(UTC+00:00)

CZ-2C R/B - Pass Details

Date: 24 September 2020
Orbit: 668 x 784 km, 98.2° (Epoch: 28 October)

Event Time Altitude Azimuth Distance (km) Brightness Sun altitude
Rises 18:24:03 0° 20° (NNE) 3,263 6.3 -29.7°
Reaches altitude 10° 18:26:29 10° 27° (NNE) 2,339 5.6 -29.3°
Maximum altitude 18:31:25 44° 99° (E) 1,068 3.5 -28.3°
Enters shadow 18:34:20 23° 159° (SSE) 1,624 4.1 -27.8°
